COSMOS 252 DEB, 3565

Orbit data source: Space-Track

COSMOS 252 DEB, 3565 is space debris in LEO originally from a launch on Fri, 01 Nov 1968 UTC launched from the Tyuratam Missile And Space Complex (TTMTR). Debris objects in space refer to the collection of defunct objects orbiting the Earth. Examples of debris include non-operational satellites, rocket bodies, and fragments generated from explosions, collisions, or faulty payload assembly.

Loading next visibility...
Identifier
3565, 1968-097R
Orbit
LEO
Country
Flag of CISCIS
Related business
Manufacturer
Unknown
Mission
Spacecraft
Bus & Motor
Unknown
Mass
Unknown
Launch date (UTC)
1968-11-01 (57 years ago)
Launch vehicle
Unknown
Launch site
Tyuratam Missile And Space Complex (TTMTR)
Object type
Payload
Rocket body
Debris
Shape & HBR
Unknown shape, 0.1 m
Radar Cross Section
Small (<0.1 m²)

Expand to show TLE details & history
Last TLE update: 13 hours ago

TLE from 13 hours ago
0 COSMOS 252 DEB
1  3565U 68097R   26122.03144095  .00002825  00000-0  52961-3 0  9991
2  3565  62.2823 136.4766 0398886 236.9703 119.2444 14.26435540836779
Epoch: 2026-05-02T00:45Z
TLE epoch observation values (Epoch: 2026-05-02T00:45:16.498Z)
Latitude
-0.00003°
Longitude
-94.79734°
Altitude
953.812 km
Speed
7.299 km/s
True Right ascension
09h 05m 54s
True Declination
0° 00' 00"
Sunlit
Object was in daylight at epoch
Visualization orbit readout
Latitude
Unknown
Longitude
Unknown
Altitude
Unknown
Speed
Unknown
Apparent Right ascension
Unknown
Apparent Declination
Unknown
Sunlit
N/A
Visualization observer readout
Local Sidereal Time
21:08:48
Azimuth
Unknown
Elevation
Unknown
Doppler factor
Unknown
Orbital elements
Apogee altitude
1,089.025 km
Perigee altitude
516.167 km
Semi-major axis
7,180.733 km
Eccentricity
0.03989
Inclination
62.2823°
RAAN
136.4766°
Arg. of periapsis
236.9703°
True anomaly
123.1348°
Mean anomaly
119.2444°
Eccentric anomaly
121.19931°
Mean motion
3.56689 °/min
Orbital period
100.93 mins
BSTAR
0.00052961
Loading maneuver chart data...
Computing Atmospheric mass density...
Loading historical data...
Loading historical data...
Loading historical data...
Loading historical data...
Loading historical data...
Loading historical data...
Loading historical data...

Documentation

Showing up to 5 results
|